This is the latest recevied weather packets stored in our database for station/object W9KHP-1. If no packets are shown the sender has not sent any weather packets the latest 1 day(s).
| Time | Temp. | Humidity | Pressure | Rain* | Wind** | Luminosity | Snow |
|---|---|---|---|---|---|---|---|
| 1778032944 | 11.11° C | 99% | 1009.1 hPa | 0 mm | 0 m/s | 0 W/m² | - |
| 1778032641 | 11.11° C | 99% | 1008.7 hPa | 1.78 mm | 0 m/s | 0 W/m² | - |
| 1778032339 | 11.11° C | 99% | 1008.2 hPa | 6.1 mm | 0 m/s | 0 W/m² | - |
| 1778032035 | 11.11° C | 99% | 1008.6 hPa | 4.83 mm | 0 m/s | 0 W/m² | - |
| 1778031731 | 11.11° C | 99% | 1009.3 hPa | 0 mm | 0 m/s | 0 W/m² | - |
| 1778031429 | 11.11° C | 99% | 1009.3 hPa | 1.27 mm | 0 m/s | 0 W/m² | - |
| 1778031126 | 11.11° C | 99% | 1009.2 hPa | 1.27 mm | 0 m/s | 0 W/m² | - |
| 1778030822 | 11.11° C | 99% | 1009.1 hPa | 0 mm | 0 m/s | 0 W/m² | - |
| 1778030519 | 11.11° C | 99% | 1009.4 hPa | 0 mm | 0 m/s | 0 W/m² | - |
| 1778030217 | 11.11° C | 99% | 1009.4 hPa | 0 mm | 0 m/s | 0 W/m² | - |
| 1778029912 | 11.11° C | 99% | 1009.5 hPa | 1.78 mm | 0 m/s | 0 W/m² | - |
| 1778029611 | 11.11° C | 99% | 1009.3 hPa | 1.78 mm | 0 m/s | 0 W/m² | - |
| 1778029308 | 11.11° C | 99% | 1009.2 hPa | 0 mm | 0 m/s | 0 W/m² | - |
| 1778029005 | 11.11° C | 99% | 1009.1 hPa | 0 mm | 0 m/s | 0 W/m² | - |
| 1778028702 | 11.11° C | 99% | 1008.9 hPa | 0 mm | 0 m/s | 0 W/m² | - |
| 1778028398 | 11.11° C | 99% | 1009.4 hPa | 0 mm | 0.89 m/s, 37° | 0 W/m² | - |
| 1778028096 | 11.11° C | 99% | 1009.2 hPa | 0 mm | 2.24 m/s, 329° | 0 W/m² | - |
| 1778027792 | 11.67° C | 99% | 1009.3 hPa | 0 mm | 1.34 m/s, 351° | 0 W/m² | - |
| 1778027488 | 11.67° C | 99% | 1009.4 hPa | 0 mm | 0.45 m/s, 336° | 1 W/m² | - |
| 1778027184 | 11.67° C | 99% | 1009.3 hPa | 1.27 mm | 1.34 m/s, 316° | 1 W/m² | - |
| 1778026880 | 12.22° C | 99% | 1008.9 hPa | 3.05 mm | 0.89 m/s, 318° | 3 W/m² | - |
| 1778026576 | 12.22° C | 99% | 1008.8 hPa | 1.78 mm | 1.34 m/s, 304° | 12 W/m² | - |
| 1778026274 | 12.22° C | 99% | 1009.5 hPa | 1.78 mm | 0.89 m/s, 338° | 18 W/m² | - |
| 1778025971 | 12.22° C | 99% | 1009.7 hPa | 3.05 mm | 0 m/s | 3 W/m² | - |
| 1778025668 | 12.22° C | 99% | 1009.4 hPa | 1.27 mm | 0 m/s | 3 W/m² | - |
* Rain latest hour (hover to see other rain measurements)
** Current wind speed in m/s (hover to see current wind gust speed)